Location: St. Louis
(38.6270°N, 90.1994°W)
Time: 00:05:22
(UTC-06:00)

Vanguard 1 - Pass Details

Date: 02 December 2021
Orbit: 652 x 3830 km, 34.2° (Epoch: 21 January)

Event Time Altitude Azimuth Distance (km) Brightness Sun altitude
Rises 05:17:03 0° 282° (WNW) 7,874 - -19.8°
Reaches altitude 10° 05:22:55 10° 279° (W) 6,635 - -18.7°
Exits shadow 05:27:55 20° 275° (W) 5,529 13.2 -17.7°
Maximum altitude 05:42:11 56° 209° (SSW) 2,887 12.3 -15.1°
Drops below altitude 10° 05:53:11 10° 134° (SE) 3,981 14.2 -13.0°
Sets 05:55:46 0° 130° (SE) 4,649 14.9 -12.5°
